Location: Borovka
(49.7741°N, 14.5280°E)
Time: 15:36:02
(UTC+00:00)

Thor Agena Rocket - Pass Details

Date: 15 February 2026
Orbit: 755 x 801 km, 99.1° (Epoch: 7 March)

Event Time Altitude Azimuth Distance (km) Brightness Sun altitude
Rises 18:11:37 0° 220° (SW) 3,230 7.3 -18.5°
Reaches altitude 10° 18:15:24 10° 249° (WSW) 2,322 7.0 -19.1°
Maximum altitude 18:17:31 13° 274° (W) 2,160 7.0 -19.4°
Drops below altitude 10° 18:19:40 10° 299° (WNW) 2,342 7.0 -19.8°
Sets 18:23:33 0° 328° (NNW) 3,289 7.3 -20.4°
